SCP
2 2 2 2 2 2 2 2 1 1 1 1 1 1 1 1 1 1 1 1 1 1 1 1 1 1 1 1 1 2 2 2 2 2 2 2 2 2 1 1 1 1 1
2 2 2 2 2 2 2 2 1 1 1 1 1 1 1 1 1 1 1 1 1 1 1 1 1 1 1 1 1 1 1 1 2 2 2 2 2 2 2 1 1 1 1
2 2 2 2 2 2 2 2 2 1 1 1 1 1 1 1 1 1 1 1 0 0 1 1 1 1 1 1 1 1 1 1 1 2 2 2 2 2 2 2 1 1 1
2 2 2 1 1 2 2 2 2 1 1 1 1 1 1 1 1 0 0 0 0 0 0 1 1 1 1 1 2 2 1 1 1 1 2 2 2 2 2 1 1 1 1
1 1 1 1 1 2 2 2 2 1 1 1 1 1 1 0 0 0 0 0 0 0 0 0 0 0 1 1 1 2 1 1 1 1 1 1 2 1 1 1 1 1 1
1 1 1 1 1 2 2 2 1 1 1 1 1 0 0 0 0 0 0 0 0 0 0 0 0 0 0 1 1 1 1 1 1 1 1 1 1 1 1 1 1 1 1
0 1 1 1 1 2 2 1 1 1 1 1 1 0 0 0 0 0 0 0 0 0 0 0 0 0 0 0 0 1 1 1 1 1 1 1 1 1 1 1 1 1 1
0 1 1 1 1 1 1 1 1 1 1 1 0 0 0 0 0 0 0 0 0 0 0 0 0 0 0 0 0 1 1 1 1 1 1 1 1 1 1 1 1 1 1
0 0 1 1 1 1 1 1 1 1 0 0 0 0 0 0 0 0 0 0 0 0 0 0 0 0 0 1 1 1 1 1 1 1 1 1 1 1 1 1 1 1 1
0 0 0 1 1 1 1 1 1 0 0 0 0 0 0 0 0 0 0 0 0 0 0 0 0 0 0 1 1 1 1 1 1 1 2 2 1 1 1 1 1 1 1
0 0 0 0 0 0 0 1 1 0 0 0 0 0 0 0 0 0 0 0 0 0 0 0 0 0 0 0 1 1 0 1 1 1 2 2 2 2 1 1 1 1 1
0 0 0 0 0 0 0 1 1 0 0 0 0 0 0 0 0 0 0 0 0 0 0 0 0 0 0 0 0 0 0 0 0 1 2 2 2 2 2 2 2 2 1
0 0 0 0 0 0 0 0 0 0 0 0 0 0 0 0 0 0 0 0 0 0 0 0 0 0 0 0 0 0 0 0 0 0 1 1 1 1 2 2 2 2 1
0 0 0 0 0 0 0 0 0 0 0 0 0 0 0 0 0 0 0 0 0 0 0 0 0 0 0 0 0 0 0 0 0 0 0 0 1 1 1 1 1 1 1
0 0 0 0 0 0 0 0 0 0 0 0 0 0 0 0 0 0 0 0 0 0 0 0 0 0 0 0 0 0 0 0 0 0 0 0 0 0 0 0 1 1 1
0 0 0 0 0 0 0 0 0 0 0 0 0 0 0 0 0 0 0 1 0 0 0 0 0 0 0 0 0 0 0 0 0 0 0 0 0 0 0 0 0 0 0
0 0 0 0 0 0 0 0 0 0 0 0 0 0 0 0 0 0 0 0 0 0 0 0 0 0 0 0 0 0 0 0 0 0 0 0 0 0 0 0 0 0 0
0 0 0 0 0 0 0 0 0 0 0 0 0 0 0 0 0 0 0 0 0 0 0 0 0 0 0 0 0 0 0 0 0 0 0 0 0 0 0 0 0 0 0
0 0 0 0 0 0 0 0 0 0 0 0 0 0 0 0 0 0 0 0 0 0 0 0 0 0 0 0 0 0 0 0 0 0 0 0 0 0 0 0 0 0 0
0 0 0 0 0 0 0 0 0 0 0 0 0 0 0 0 0 0 0 0 0 0 0 0 0 0 0 0 0 0 0 0 0 0 0 0 0 0 0 0 0 0 0
0 0 0 0 0 0 0 0 0 0 0 0 0 0 0 0 0 0 0 0 0 0 0 0 0 0 0 0 0 0 0 0 0 0 0 0 0 0 0 0 0 0 0
0 0 0 0 0 0 0 0 0 0 0 0 0 0 0 0 0 0 0 0 0 0 0 0 0 0 0 0 0 0 0 0 0 0 0 0 0 0 0 0 0 0 0
0 0 0 0 0 0 0 0 0 0 0 0 0 0 0 0 0 0 0 0 0 0 0 0 0 0 0 0 0 0 0 0 0 0 0 0 0 0 0 0 0 0 0
0 0 0 0 0 0 0 0 0 0 0 0 0 0 0 0 0 0 0 0 0 0 0 0 0 0 0 0 0 0 0 0 0 0 0 0 0 0 0 0 0 0 0
0 0 0 0 0 0 0 0 0 0 0 0 0 0 0 0 0 0 0 0 0 0 0 0 0 0 0 0 0 0 0 0 0 0 0 0 0 0 0 0 0 0 0
0 0 0 0 0 0 0 0 0 0 0 0 0 0 0 0 0 0 0 0 0 0 0 0 0 0 0 0 0 0 0 0 0 0 0 0 0 0 0 0 0 0 0
Wind_Speed
0 1 1 1 1 2 2 2 3 3 3 3 2 3 3 3 3 3 1 1 2 4 5 5 6 6 5 5 5 5 5 5 6 6 6 7 8 9 9 9 9 10 10
0 1 1 1 1 2 2 2 3 3 2 2 3 3 3 3 3 3 3 1 0 2 4 5 6 6 6 6 6 5 5 5 6 6 7 7 8 9 10 10 10 10 11
0 1 1 1 1 2 2 2 2 2 2 2 2 3 3 3 3 3 3 3 2 1 2 5 6 6 7 7 6 6 6 6 6 7 7 7 8 8 10 11 11 11 12
1 1 1 1 1 2 2 2 2 2 2 2 2 2 2 2 3 3 2 2 2 2 2 3 4 6 6 7 7 7 6 6 7 7 8 8 9 9 10 11 11 12 12
1 1 1 1 1 1 1 2 2 2 2 2 2 2 2 2 2 2 2 2 2 3 3 2 3 4 6 7 8 8 8 7 7 7 8 9 9 10 11 11 12 13 13
1 1 1 1 1 1 1 2 1 1 1 2 2 2 2 2 2 2 2 2 2 3 3 3 3 2 3 5 7 8 8 8 8 8 9 9 10 11 12 13 13 13 14
1 2 1 1 1 1 1 2 2 1 1 1 2 1 1 2 1 1 2 1 2 2 3 3 3 3 2 3 5 7 8 9 9 9 10 10 11 11 12 12 13 13 13
1 1 1 1 1 1 1 1 2 1 1 1 2 2 2 2 1 1 2 1 2 2 2 3 3 4 4 3 4 6 9 10 11 11 10 11 11 12 12 12 13 13 13
0 1 2 1 1 1 1 1 2 2 1 1 1 2 2 2 2 2 2 2 2 3 3 3 3 4 4 4 4 5 8 10 12 12 12 12 12 12 13 13 13 13 13
1 1 1 1 1 1 2 2 2 2 2 2 1 1 2 2 3 2 2 2 3 4 4 4 4 4 5 4 4 7 9 10 12 13 13 13 13 13 13 13 13 13 13
1 1 2 1 1 1 2 2 2 2 2 2 2 2 2 3 4 4 4 3 3 3 4 4 4 4 4 5 5 7 9 11 12 13 13 13 13 13 14 14 13 13 13
1 2 2 2 2 1 2 2 2 2 2 2 2 2 3 3 3 3 5 5 5 4 5 4 4 4 4 5 6 8 10 11 12 13 13 13 13 13 13 13 13 13 12
2 2 2 2 2 2 2 2 2 2 3 3 3 3 3 3 3 4 5 5 6 4 5 4 4 4 4 5 5 8 9 11 12 13 14 13 13 12 13 13 13 13 12
2 2 3 3 3 2 2 2 2 3 3 3 3 3 3 3 3 3 4 4 5 5 5 5 4 4 4 5 6 9 8 10 12 13 13 13 12 12 12 12 13 12 12
2 3 3 3 3 3 3 2 2 3 3 3 3 3 3 3 3 3 3 4 5 6 5 4 4 4 5 5 7 8 8 10 11 12 12 12 12 12 12 12 12 12 13
2 3 3 3 3 3 3 3 3 3 3 3 3 3 3 3 2 3 3 3 4 5 6 4 5 6 6 6 8 8 8 11 10 11 12 12 12 12 11 11 12 12 13
3 3 3 3 3 3 3 3 3 3 3 3 3 4 4 4 3 3 3 4 4 5 7 6 5 6 8 8 7 7 7 8 7 9 11 12 12 12 11 12 12 12 13
3 3 3 3 3 3 3 4 4 3 4 4 4 4 4 3 4 4 4 4 4 5 6 8 7 6 8 8 8 8 7 6 7 9 12 12 12 12 12 12 12 12 13
4 3 4 4 4 4 4 4 4 4 4 4 4 5 5 4 5 4 5 5 4 5 5 7 7 6 6 6 8 7 8 7 7 8 10 10 11 12 12 12 12 12 12
4 4 4 4 4 4 4 5 5 5 5 5 5 5 5 5 6 5 5 5 5 5 5 6 6 6 6 6 6 6 7 6 7 6 7 8 10 12 12 12 11 11 11
5 4 4 4 5 4 4 5 5 5 5 5 5 5 5 6 6 6 5 5 5 5 5 6 6 6 6 5 5 6 7 8 8 5 6 6 6 6 7 8 9 9 11
5 5 5 5 5 4 5 7 6 5 6 6 6 5 5 6 6 8 9 9 8 7 7 6 6 7 8 7 6 6 7 7 7 4 6 7 6 7 6 6 8 10 11
5 5 5 5 6 6 7 8 9 6 6 6 6 5 4 4 6 6 7 9 9 10 10 8 8 8 8 7 8 8 8 8 8 7 7 8 6 7 6 6 10 11 12
5 5 5 6 6 6 7 8 9 7 6 6 6 6 6 6 5 6 6 7 7 7 8 7 8 8 8 8 8 8 9 10 9 6 6 7 6 7 7 7 8 11 12
5 5 5 6 6 6 7 8 8 5 6 7 6 6 6 6 7 7 6 7 7 7 7 9 10 10 11 11 9 7 7 7 7 5 4 5 6 7 7 6 6 9 11
5 5 5 6 6 6 7 8 8 5 6 6 5 6 8 8 8 8 6 6 7 7 6 6 7 8 8 8 8 7 6 6 6 5 3 4 5 5 6 4 5 6 7
Wind_Direction
35 28 4 357 341 334 320 316 304 305 297 300 296 295 291 285 282 278 289 43 316 310 304 296 290 286 282 278 276 279 282 277 269 265 261 257 253 248 244 244 247 248 245
2 342 345 350 346 331 326 308 308 298 293 296 299 296 291 286 282 284 287 294 341 313 307 304 304 302 294 284 278 279 283 285 281 276 269 265 260 251 245 244 247 250 250
325 301 314 324 330 323 319 307 307 296 293 291 292 293 292 291 287 285 289 294 298 353 325 317 313 311 308 300 293 291 290 289 289 286 284 278 270 263 254 249 251 252 254
326 288 293 308 321 318 318 311 309 300 296 299 302 301 294 290 288 293 291 299 307 310 337 348 329 323 319 313 306 301 300 302 299 296 290 287 281 273 265 259 256 255 255
297 271 286 308 316 321 324 316 316 306 303 311 308 301 299 292 294 294 293 306 316 317 314 351 352 337 326 319 313 308 307 303 307 303 296 292 287 282 274 269 263 259 258
294 268 252 302 317 306 321 322 322 315 306 317 309 303 296 289 285 291 293 301 323 324 323 323 319 337 339 326 321 315 311 305 305 305 303 297 290 285 282 273 270 266 262
329 293 271 257 282 294 318 326 312 293 332 331 289 293 275 254 263 276 301 301 325 331 334 332 327 325 324 332 332 328 321 313 305 302 300 298 293 290 287 285 277 272 270
349 325 295 270 270 273 281 317 312 282 301 318 295 281 268 230 192 287 296 295 317 330 333 331 331 327 323 321 347 341 333 324 316 308 303 300 298 293 291 289 288 283 279
237 299 309 291 288 279 274 289 301 279 263 259 291 286 281 284 316 251 265 280 308 317 319 324 321 324 325 322 320 335 332 324 316 310 305 302 297 294 292 290 289 289 285
233 246 282 274 272 278 284 290 302 276 258 251 242 267 289 301 274 281 248 267 301 304 308 307 309 318 323 322 325 332 325 320 314 311 308 304 301 298 293 293 290 292 289
251 250 257 259 258 270 286 290 290 268 254 256 253 256 254 258 256 264 272 279 286 286 297 297 298 301 311 315 316 333 327 319 311 308 307 307 307 305 299 297 296 294 296
244 254 250 248 252 260 274 277 277 272 259 252 252 251 256 252 257 265 273 285 287 288 289 284 284 291 300 305 315 331 319 315 313 311 308 308 309 310 310 307 303 300 301
251 253 252 250 253 250 246 258 264 272 264 250 247 252 255 261 269 270 271 279 283 289 278 269 274 285 293 302 309 323 309 311 311 311 309 309 311 313 311 309 307 307 304
265 259 253 250 252 253 243 236 245 256 254 246 246 251 253 260 262 264 268 278 280 276 268 273 278 278 287 299 312 310 301 306 308 310 309 310 311 311 309 307 306 305 305
258 254 249 247 247 249 253 245 243 254 243 240 245 248 251 257 263 267 265 267 275 282 284 282 282 284 295 296 304 299 299 305 305 304 305 306 305 304 303 301 302 301 301
252 251 249 247 248 246 247 247 245 250 243 237 242 246 253 262 260 265 264 265 267 276 281 288 289 295 298 293 296 294 296 301 293 296 302 303 301 299 298 300 300 298 297
245 246 246 249 254 255 252 245 245 248 248 245 240 241 249 260 264 265 265 266 267 270 276 285 288 294 295 295 298 298 297 295 293 295 299 299 299 296 297 299 298 296 295
249 249 248 248 251 256 256 253 250 249 252 253 249 243 249 255 263 267 266 266 267 271 278 286 290 293 295 300 301 300 297 294 291 294 297 296 295 294 296 297 295 293 292
248 245 243 242 247 253 254 255 255 253 255 259 258 254 256 257 263 264 267 269 270 273 274 280 288 293 293 298 301 297 295 293 292 291 292 290 290 291 293 294 294 291 290
247 243 242 243 245 247 251 253 254 255 257 258 259 258 257 255 260 264 265 267 271 273 271 274 281 287 290 297 299 303 304 303 298 295 291 291 290 289 288 289 289 291 292
250 247 246 247 246 245 246 250 252 255 258 260 258 257 257 262 268 269 267 268 269 269 271 272 277 283 287 296 300 306 300 306 299 293 299 296 294 288 287 285 285 289 293
250 246 245 247 248 246 243 244 251 253 255 257 261 261 260 256 260 263 267 269 268 266 269 271 275 278 286 293 297 299 301 303 301 307 306 296 291 286 286 284 289 294 294
252 248 248 248 250 251 246 246 246 251 252 255 259 260 259 260 262 264 265 266 264 263 265 269 272 276 286 291 293 292 292 293 290 300 302 290 291 288 290 286 289 288 289
254 252 252 252 255 256 251 251 250 247 250 252 254 255 258 263 259 266 273 271 270 266 262 262 269 278 282 285 282 283 288 291 287 282 281 284 293 295 299 291 284 283 287
257 256 256 254 255 258 250 252 253 251 249 253 253 252 255 259 260 266 271 272 277 277 268 266 272 278 283 282 284 284 282 284 289 291 284 280 295 305 297 288 283 285 288
260 261 257 255 255 259 251 249 250 248 251 254 254 250 249 256 263 265 265 267 273 281 287 283 274 273 274 275 277 273 276 278 284 289 288 288 296 312 301 290 297 296 290